owner,sensor,date,latitude,longitude,vertical_datum,wind_speed,wind_to_direction,wind_speed_of_gust,qcFlag 
LUMCON,ioos:station:LUMCON:103:1,2010-07-01T00:00:00Z,30.1889,-90.1683,1.0,6.7,110.0,9.8,'11111222,11111222,11111222' 
LUMCON,ioos:station:LUMCON:103:1,2010-07-01T01:00:00Z,30.1889,-90.1683,1.0,4.1,100.0,6.7,'11111222,11111222,11111222' 
LUMCON,ioos:station:LUMCON:103:1,2010-07-01T02:00:00Z,30.1889,-90.1683,1.0,6.7,90.0,9.3,'11111222,11111222,11111222' 
LUMCON,ioos:station:LUMCON:103:1,2010-07-01T03:00:00Z,30.1889,-90.1683,1.0,7.7,100.0,9.8,'11111222,11111222,11111222' 
LUMCON,ioos:station:LUMCON:103:1,2010-07-01T04:00:00Z,30.1889,-90.1683,1.0,6.7,100.0,9.8,'11111222,11111222,11111222' 
LUMCON,ioos:station:LUMCON:103:1,2010-07-01T05:00:00Z,30.1889,-90.1683,1.0,6.2,100.0,8.2,'11111222,11111222,11111222' 
LUMCON,ioos:station:LUMCON:103:1,2010-07-01T06:00:00Z,30.1889,-90.1683,1.0,5.1,90.0,7.7,'11111222,11111222,11111222' 
LUMCON,ioos:station:LUMCON:103:1,2010-07-01T07:00:00Z,30.1889,-90.1683,1.0,5.1,80.0,7.7,'11111222,11111222,11111222' 
LUMCON,ioos:station:LUMCON:103:1,2010-07-01T08:00:00Z,30.1889,-90.1683,1.0,5.7,80.0,8.2,'11111222,11111222,11111222' 
LUMCON,ioos:station:LUMCON:103:1,2010-07-01T09:00:00Z,30.1889,-90.1683,1.0,6.2,80.0,9.8,'11111222,11111222,11111222' 
LUMCON,ioos:station:LUMCON:103:1,2010-07-01T10:00:00Z,30.1889,-90.1683,1.0,5.7,80.0,8.8,'11111222,11111222,11111222' 
LUMCON,ioos:station:LUMCON:103:1,2010-07-01T11:00:00Z,30.1889,-90.1683,1.0,6.7,80.0,9.8,'11111222,11111222,11111222' 
LUMCON,ioos:station:LUMCON:103:1,2010-07-01T12:00:00Z,30.1889,-90.1683,1.0,8.2,90.0,9.8,'11111222,11111222,11111222' 
LUMCON,ioos:station:LUMCON:103:1,2010-07-01T13:00:00Z,30.1889,-90.1683,1.0,7.7,90.0,9.3,'11111222,11111222,11111222' 
LUMCON,ioos:station:LUMCON:103:1,2010-07-01T20:00:00Z,30.1889,-90.1683,1.0,3.6,90.0,6.2,'11111222,11111222,11111222' 
LUMCON,ioos:station:LUMCON:103:1,2010-07-01T22:00:00Z,30.1889,-90.1683,1.0,4.1,70.0,6.7,'11111222,11111222,11111222' 
LUMCON,ioos:station:LUMCON:103:1,2010-07-01T23:00:00Z,30.1889,-90.1683,1.0,5.1,110.0,7.2,'11111222,11111222,11111222' 
LUMCON,ioos:station:LUMCON:103:1,2010-07-02T00:00:00Z,30.1889,-90.1683,1.0,3.6,90.0,6.7,'11111222,11111222,11111222' 
LUMCON,ioos:station:LUMCON:103:1,2010-07-02T01:00:00Z,30.1889,-90.1683,1.0,4.6,70.0,7.7,'11111222,11111222,11111222' 
LUMCON,ioos:station:LUMCON:103:1,2010-07-02T02:00:00Z,30.1889,-90.1683,1.0,6.2,80.0,9.8,'11111222,11111222,11111222' 
LUMCON,ioos:station:LUMCON:103:1,2010-07-02T03:00:00Z,30.1889,-90.1683,1.0,6.2,70.0,9.8,'11111222,11111222,11111222' 
LUMCON,ioos:station:LUMCON:103:1,2010-07-02T04:00:00Z,30.1889,-90.1683,1.0,5.1,80.0,8.2,'11111222,11111222,11111222' 
LUMCON,ioos:station:LUMCON:103:1,2010-07-02T05:00:00Z,30.1889,-90.1683,1.0,5.1,80.0,7.7,'11111222,11111222,11111222' 
LUMCON,ioos:station:LUMCON:103:1,2010-07-02T06:00:00Z,30.1889,-90.1683,1.0,5.1,100.0,8.2,'11111222,11111222,11111222' 
LUMCON,ioos:station:LUMCON:103:1,2010-07-02T07:00:00Z,30.1889,-90.1683,1.0,5.1,100.0,8.2,'11111222,11111222,11111222' 
LUMCON,ioos:station:LUMCON:103:1,2010-07-02T08:00:00Z,30.1889,-90.1683,1.0,4.1,90.0,7.2,'11111222,11111222,11111222' 
LUMCON,ioos:station:LUMCON:103:1,2010-07-02T09:00:00Z,30.1889,-90.1683,1.0,3.6,80.0,6.2,'11111222,11111222,11111222' 
LUMCON,ioos:station:LUMCON:103:1,2010-07-02T10:00:00Z,30.1889,-90.1683,1.0,4.1,80.0,7.2,'11111222,11111222,11111222' 
LUMCON,ioos:station:LUMCON:103:1,2010-07-02T11:00:00Z,30.1889,-90.1683,1.0,4.6,70.0,6.2,'11111222,11111222,11111222' 
LUMCON,ioos:station:LUMCON:103:1,2010-07-02T12:00:00Z,30.1889,-90.1683,1.0,3.6,70.0,5.7,'11111222,11111222,11111222' 
LUMCON,ioos:station:LUMCON:103:1,2010-07-02T23:00:00Z,30.1889,-90.1683,1.0,1.0,80.0,1.5,'11111222,11111222,11111222' 
LUMCON,ioos:station:LUMCON:103:1,2010-07-03T00:00:00Z,30.1889,-90.1683,1.0,1.0,250.0,1.5,'11111222,11111222,11111222' 
LUMCON,ioos:station:LUMCON:103:1,2010-07-03T01:00:00Z,30.1889,-90.1683,1.0,1.5,330.0,3.1,'11111222,11111222,11111222' 
LUMCON,ioos:station:LUMCON:103:1,2010-07-03T02:00:00Z,30.1889,-90.1683,1.0,2.1,20.0,3.1,'11111222,11111222,11111222' 
LUMCON,ioos:station:LUMCON:103:1,2010-07-03T03:00:00Z,30.1889,-90.1683,1.0,2.1,30.0,3.6,'11111222,11111222,11111222' 
LUMCON,ioos:station:LUMCON:103:1,2010-07-03T04:00:00Z,30.1889,-90.1683,1.0,2.1,50.0,3.1,'11111222,11111222,11111222' 
LUMCON,ioos:station:LUMCON:103:1,2010-07-03T05:00:00Z,30.1889,-90.1683,1.0,2.6,80.0,3.6,'11111222,11111222,11111222' 
LUMCON,ioos:station:LUMCON:103:1,2010-07-03T06:00:00Z,30.1889,-90.1683,1.0,2.6,80.0,4.1,'11111222,11111222,11111222' 
LUMCON,ioos:station:LUMCON:103:1,2010-07-03T07:00:00Z,30.1889,-90.1683,1.0,2.6,90.0,5.1,'11111222,11111222,11111222' 
LUMCON,ioos:station:LUMCON:103:1,2010-07-03T09:00:00Z,30.1889,-90.1683,1.0,3.6,60.0,7.2,'11111222,11111222,11111222' 
LUMCON,ioos:station:LUMCON:103:1,2010-07-03T10:00:00Z,30.1889,-90.1683,1.0,3.1,60.0,7.2,'11111222,11111222,11111222' 
LUMCON,ioos:station:LUMCON:103:1,2010-07-03T11:00:00Z,30.1889,-90.1683,1.0,3.6,50.0,7.7,'11111222,11111222,11111222' 
LUMCON,ioos:station:LUMCON:103:1,2010-07-03T12:00:00Z,30.1889,-90.1683,1.0,3.1,40.0,6.2,'11111222,11111222,11111222' 
LUMCON,ioos:station:LUMCON:103:1,2010-07-03T16:00:00Z,30.1889,-90.1683,1.0,3.6,80.0,5.7,'11111222,11111222,11111222' 
LUMCON,ioos:station:LUMCON:103:1,2010-07-03T17:00:00Z,30.1889,-90.1683,1.0,4.6,70.0,6.2,'11111222,11111222,11111222' 
LUMCON,ioos:station:LUMCON:103:1,2010-07-03T18:00:00Z,30.1889,-90.1683,1.0,3.6,80.0,5.7,'11111222,11111222,11111222' 
LUMCON,ioos:station:LUMCON:103:1,2010-07-03T19:00:00Z,30.1889,-90.1683,1.0,6.7,70.0,9.8,'11111222,11111222,11111222' 
LUMCON,ioos:station:LUMCON:103:1,2010-07-03T21:00:00Z,30.1889,-90.1683,1.0,6.2,100.0,7.2,'11111222,11111222,11111222' 
LUMCON,ioos:station:LUMCON:103:1,2010-07-03T22:00:00Z,30.1889,-90.1683,1.0,7.2,70.0,8.2,'11111222,11111222,11111222' 
LUMCON,ioos:station:LUMCON:103:1,2010-07-03T23:00:00Z,30.1889,-90.1683,1.0,6.7,100.0,8.2,'11111222,11111222,11111222' 
LUMCON,ioos:station:LUMCON:103:1,2010-07-04T00:00:00Z,30.1889,-90.1683,1.0,7.2,100.0,9.8,'11111222,11111222,11111222' 
LUMCON,ioos:station:LUMCON:103:1,2010-07-04T01:00:00Z,30.1889,-90.1683,1.0,7.2,110.0,9.8,'11111222,11111222,11111222' 
LUMCON,ioos:station:LUMCON:103:1,2010-07-04T02:00:00Z,30.1889,-90.1683,1.0,7.2,100.0,9.8,'11111222,11111222,11111222' 
LUMCON,ioos:station:LUMCON:103:1,2010-07-04T03:00:00Z,30.1889,-90.1683,1.0,7.2,110.0,9.8,'11111222,11111222,11111222' 
LUMCON,ioos:station:LUMCON:103:1,2010-07-04T04:00:00Z,30.1889,-90.1683,1.0,7.2,100.0,9.8,'11111222,11111222,11111222' 
LUMCON,ioos:station:LUMCON:103:1,2010-07-04T05:00:00Z,30.1889,-90.1683,1.0,7.2,90.0,9.8,'11111222,11111222,11111222' 
LUMCON,ioos:station:LUMCON:103:1,2010-07-04T06:00:00Z,30.1889,-90.1683,1.0,7.2,90.0,9.3,'11111222,11111222,11111222' 
LUMCON,ioos:station:LUMCON:103:1,2010-07-04T07:00:00Z,30.1889,-90.1683,1.0,7.2,90.0,9.8,'11111222,11111222,11111222' 
LUMCON,ioos:station:LUMCON:103:1,2010-07-04T08:00:00Z,30.1889,-90.1683,1.0,7.2,100.0,9.8,'11111222,11111222,11111222' 
LUMCON,ioos:station:LUMCON:103:1,2010-07-04T09:00:00Z,30.1889,-90.1683,1.0,6.7,100.0,9.8,'11111222,11111222,11111222' 
LUMCON,ioos:station:LUMCON:103:1,2010-07-04T10:00:00Z,30.1889,-90.1683,1.0,6.7,100.0,9.3,'11111222,11111222,11111222' 
LUMCON,ioos:station:LUMCON:103:1,2010-07-04T11:00:00Z,30.1889,-90.1683,1.0,5.7,90.0,9.3,'11111222,11111222,11111222' 
LUMCON,ioos:station:LUMCON:103:1,2010-07-04T12:00:00Z,30.1889,-90.1683,1.0,5.7,90.0,8.8,'11111222,11111222,11111222' 
LUMCON,ioos:station:LUMCON:103:1,2010-07-04T13:00:00Z,30.1889,-90.1683,1.0,5.7,90.0,8.8,'11111222,11111222,11111222' 
LUMCON,ioos:station:LUMCON:103:1,2010-07-04T14:00:00Z,30.1889,-90.1683,1.0,5.1,90.0,7.7,'11111222,11111222,11111222' 
LUMCON,ioos:station:LUMCON:103:1,2010-07-04T15:00:00Z,30.1889,-90.1683,1.0,5.1,80.0,7.2,'11111222,11111222,11111222' 
LUMCON,ioos:station:LUMCON:103:1,2010-07-04T16:00:00Z,30.1889,-90.1683,1.0,5.1,90.0,7.2,'11111222,11111222,11111222' 
LUMCON,ioos:station:LUMCON:103:1,2010-07-04T17:00:00Z,30.1889,-90.1683,1.0,5.1,90.0,7.7,'11111222,11111222,11111222' 
LUMCON,ioos:station:LUMCON:103:1,2010-07-04T18:00:00Z,30.1889,-90.1683,1.0,5.7,100.0,7.2,'11111222,11111222,11111222' 
LUMCON,ioos:station:LUMCON:103:1,2010-07-04T19:00:00Z,30.1889,-90.1683,1.0,7.2,100.0,7.2,'11111222,11111222,11111222' 
LUMCON,ioos:station:LUMCON:103:1,2010-07-04T20:00:00Z,30.1889,-90.1683,1.0,6.7,100.0,9.8,'11111222,11111222,11111222' 
LUMCON,ioos:station:LUMCON:103:1,2010-07-04T21:00:00Z,30.1889,-90.1683,1.0,7.2,110.0,9.8,'11111222,11111222,11111222' 
LUMCON,ioos:station:LUMCON:103:1,2010-07-04T22:00:00Z,30.1889,-90.1683,1.0,8.2,110.0,9.8,'11111222,11111222,11111222' 
LUMCON,ioos:station:LUMCON:103:1,2010-07-04T23:00:00Z,30.1889,-90.1683,1.0,7.2,110.0,9.8,'11111222,11111222,11111222' 
LUMCON,ioos:station:LUMCON:103:1,2010-07-05T00:00:00Z,30.1889,-90.1683,1.0,6.7,110.0,9.3,'11111222,11111222,11111222' 
LUMCON,ioos:station:LUMCON:103:1,2010-07-05T01:00:00Z,30.1889,-90.1683,1.0,7.7,100.0,9.8,'11111222,11111222,11111222' 
LUMCON,ioos:station:LUMCON:103:1,2010-07-05T02:00:00Z,30.1889,-90.1683,1.0,7.2,100.0,9.8,'11111222,11111222,11111222' 
LUMCON,ioos:station:LUMCON:103:1,2010-07-05T03:00:00Z,30.1889,-90.1683,1.0,7.2,100.0,9.8,'11111222,11111222,11111222' 
LUMCON,ioos:station:LUMCON:103:1,2010-07-05T04:00:00Z,30.1889,-90.1683,1.0,6.7,100.0,9.8,'11111222,11111222,11111222' 
LUMCON,ioos:station:LUMCON:103:1,2010-07-05T05:00:00Z,30.1889,-90.1683,1.0,6.2,100.0,9.3,'11111222,11111222,11111222' 
LUMCON,ioos:station:LUMCON:103:1,2010-07-05T06:00:00Z,30.1889,-90.1683,1.0,6.2,100.0,8.8,'11111222,11111222,11111222' 
LUMCON,ioos:station:LUMCON:103:1,2010-07-05T07:00:00Z,30.1889,-90.1683,1.0,6.7,100.0,9.8,'11111222,11111222,11111222' 
LUMCON,ioos:station:LUMCON:103:1,2010-07-05T08:00:00Z,30.1889,-90.1683,1.0,7.2,110.0,9.8,'11111222,11111222,11111222' 
LUMCON,ioos:station:LUMCON:103:1,2010-07-05T09:00:00Z,30.1889,-90.1683,1.0,7.2,110.0,9.8,'11111222,11111222,11111222' 
LUMCON,ioos:station:LUMCON:103:1,2010-07-05T10:00:00Z,30.1889,-90.1683,1.0,6.2,120.0,9.3,'11111222,11111222,11111222' 
LUMCON,ioos:station:LUMCON:103:1,2010-07-05T11:00:00Z,30.1889,-90.1683,1.0,7.7,130.0,9.8,'11111222,11111222,11111222' 
LUMCON,ioos:station:LUMCON:103:1,2010-07-05T12:00:00Z,30.1889,-90.1683,1.0,7.7,160.0,9.8,'11111222,11111222,11111222' 
LUMCON,ioos:station:LUMCON:103:1,2010-07-05T22:00:00Z,30.1889,-90.1683,1.0,8.8,130.0,9.3,'11111222,11111222,11111222' 
LUMCON,ioos:station:LUMCON:103:1,2010-07-05T23:00:00Z,30.1889,-90.1683,1.0,9.3,140.0,9.8,'11111222,11111222,11111222' 
LUMCON,ioos:station:LUMCON:103:1,2010-07-06T00:00:00Z,30.1889,-90.1683,1.0,8.8,130.0,9.3,'11111222,11111222,11111222' 
LUMCON,ioos:station:LUMCON:103:1,2010-07-06T01:00:00Z,30.1889,-90.1683,1.0,9.3,110.0,9.8,'11111222,11111222,11111222' 
LUMCON,ioos:station:LUMCON:103:1,2010-07-06T02:00:00Z,30.1889,-90.1683,1.0,9.3,120.0,9.8,'11111222,11111222,11111222' 
LUMCON,ioos:station:LUMCON:103:1,2010-07-06T03:00:00Z,30.1889,-90.1683,1.0,8.8,120.0,9.3,'11111222,11111222,11111222' 
LUMCON,ioos:station:LUMCON:103:1,2010-07-06T04:00:00Z,30.1889,-90.1683,1.0,8.2,130.0,9.8,'11111222,11111222,11111222' 
LUMCON,ioos:station:LUMCON:103:1,2010-07-06T05:00:00Z,30.1889,-90.1683,1.0,9.8,130.0,9.8,'11111222,11111222,11111222' 
LUMCON,ioos:station:LUMCON:103:1,2010-07-06T06:00:00Z,30.1889,-90.1683,1.0,9.3,140.0,9.8,'11111222,11111222,11111222' 
LUMCON,ioos:station:LUMCON:103:1,2010-07-06T07:00:00Z,30.1889,-90.1683,1.0,8.8,140.0,9.8,'11111222,11111222,11111222' 
LUMCON,ioos:station:LUMCON:103:1,2010-07-06T08:00:00Z,30.1889,-90.1683,1.0,7.2,130.0,9.8,'11111222,11111222,11111222' 
LUMCON,ioos:station:LUMCON:103:1,2010-07-06T09:00:00Z,30.1889,-90.1683,1.0,7.7,130.0,9.8,'11111222,11111222,11111222' 
LUMCON,ioos:station:LUMCON:103:1,2010-07-06T10:00:00Z,30.1889,-90.1683,1.0,6.7,140.0,9.3,'11111222,11111222,11111222' 
LUMCON,ioos:station:LUMCON:103:1,2010-07-06T11:00:00Z,30.1889,-90.1683,1.0,4.6,120.0,6.7,'11111222,11111222,11111222' 
LUMCON,ioos:station:LUMCON:103:1,2010-07-06T12:00:00Z,30.1889,-90.1683,1.0,5.7,110.0,7.2,'11111222,11111222,11111222' 
LUMCON,ioos:station:LUMCON:103:1,2010-07-06T23:00:00Z,30.1889,-90.1683,1.0,9.3,130.0,9.8,'11111222,11111222,11111222' 
LUMCON,ioos:station:LUMCON:103:1,2010-07-07T00:00:00Z,30.1889,-90.1683,1.0,10.3,140.0,14.4,'11111222,11111222,11111222' 
LUMCON,ioos:station:LUMCON:103:1,2010-07-07T01:00:00Z,30.1889,-90.1683,1.0,10.3,140.0,99.0,'11111222,11111222,11144222' 
LUMCON,ioos:station:LUMCON:103:1,2010-07-07T02:00:00Z,30.1889,-90.1683,1.0,8.2,140.0,9.8,'11111222,11111222,11111222' 
LUMCON,ioos:station:LUMCON:103:1,2010-07-07T03:00:00Z,30.1889,-90.1683,1.0,8.2,130.0,9.8,'11111222,11111222,11111222' 
LUMCON,ioos:station:LUMCON:103:1,2010-07-07T04:00:00Z,30.1889,-90.1683,1.0,9.3,130.0,9.3,'11111222,11111222,11111222' 
LUMCON,ioos:station:LUMCON:103:1,2010-07-07T05:00:00Z,30.1889,-90.1683,1.0,9.3,130.0,9.8,'11111222,11111222,11111222' 
LUMCON,ioos:station:LUMCON:103:1,2010-07-07T06:00:00Z,30.1889,-90.1683,1.0,7.2,120.0,9.8,'11111222,11111222,11111222' 
LUMCON,ioos:station:LUMCON:103:1,2010-07-07T07:00:00Z,30.1889,-90.1683,1.0,7.2,130.0,8.8,'11111222,11111222,11111222' 
LUMCON,ioos:station:LUMCON:103:1,2010-07-07T08:00:00Z,30.1889,-90.1683,1.0,6.2,120.0,8.2,'11111222,11111222,11111222' 
LUMCON,ioos:station:LUMCON:103:1,2010-07-07T09:00:00Z,30.1889,-90.1683,1.0,6.7,130.0,9.3,'11111222,11111222,11111222' 
LUMCON,ioos:station:LUMCON:103:1,2010-07-07T10:00:00Z,30.1889,-90.1683,1.0,7.2,130.0,9.8,'11111222,11111222,11111222' 
LUMCON,ioos:station:LUMCON:103:1,2010-07-07T11:00:00Z,30.1889,-90.1683,1.0,8.2,130.0,9.8,'11111222,11111222,11111222' 
LUMCON,ioos:station:LUMCON:103:1,2010-07-07T12:00:00Z,30.1889,-90.1683,1.0,8.8,130.0,9.8,'11111222,11111222,11111222' 
LUMCON,ioos:station:LUMCON:103:1,2010-07-07T13:00:00Z,30.1889,-90.1683,1.0,8.2,120.0,9.8,'11111222,11111222,11111222' 
LUMCON,ioos:station:LUMCON:103:1,2010-07-07T23:00:00Z,30.1889,-90.1683,1.0,6.2,130.0,9.8,'11111222,11111222,11111222' 
LUMCON,ioos:station:LUMCON:103:1,2010-07-08T00:00:00Z,30.1889,-90.1683,1.0,6.2,120.0,8.2,'11111222,11111222,11111222' 
LUMCON,ioos:station:LUMCON:103:1,2010-07-08T01:00:00Z,30.1889,-90.1683,1.0,5.1,110.0,7.7,'11111222,11111222,11111222' 
LUMCON,ioos:station:LUMCON:103:1,2010-07-08T02:00:00Z,30.1889,-90.1683,1.0,5.1,100.0,7.7,'11111222,11111222,11111222' 
LUMCON,ioos:station:LUMCON:103:1,2010-07-08T03:00:00Z,30.1889,-90.1683,1.0,6.2,110.0,9.3,'11111222,11111222,11111222' 
LUMCON,ioos:station:LUMCON:103:1,2010-07-08T04:00:00Z,30.1889,-90.1683,1.0,5.7,120.0,8.2,'11111222,11111222,11111222' 
LUMCON,ioos:station:LUMCON:103:1,2010-07-08T05:00:00Z,30.1889,-90.1683,1.0,6.2,110.0,9.8,'11111222,11111222,11111222' 
LUMCON,ioos:station:LUMCON:103:1,2010-07-08T06:00:00Z,30.1889,-90.1683,1.0,5.7,120.0,8.8,'11111222,11111222,11111222' 
LUMCON,ioos:station:LUMCON:103:1,2010-07-08T07:00:00Z,30.1889,-90.1683,1.0,5.7,110.0,8.8,'11111222,11111222,11111222' 
LUMCON,ioos:station:LUMCON:103:1,2010-07-08T08:00:00Z,30.1889,-90.1683,1.0,5.1,110.0,8.2,'11111222,11111222,11111222' 
LUMCON,ioos:station:LUMCON:103:1,2010-07-08T09:00:00Z,30.1889,-90.1683,1.0,4.6,110.0,7.2,'11111222,11111222,11111222' 
LUMCON,ioos:station:LUMCON:103:1,2010-07-08T10:00:00Z,30.1889,-90.1683,1.0,4.1,100.0,6.2,'11111222,11111222,11111222' 
LUMCON,ioos:station:LUMCON:103:1,2010-07-08T11:00:00Z,30.1889,-90.1683,1.0,5.1,100.0,7.2,'11111222,11111222,11111222' 
LUMCON,ioos:station:LUMCON:103:1,2010-07-08T23:00:00Z,30.1889,-90.1683,1.0,3.6,140.0,5.7,'11111222,11111222,11111222' 
LUMCON,ioos:station:LUMCON:103:1,2010-07-09T00:00:00Z,30.1889,-90.1683,1.0,3.6,120.0,5.1,'11111222,11111222,11111222' 
LUMCON,ioos:station:LUMCON:103:1,2010-07-09T01:00:00Z,30.1889,-90.1683,1.0,3.1,150.0,4.6,'11111222,11111222,11111222' 
LUMCON,ioos:station:LUMCON:103:1,2010-07-09T02:00:00Z,30.1889,-90.1683,1.0,2.6,160.0,3.6,'11111222,11111222,11111222' 
LUMCON,ioos:station:LUMCON:103:1,2010-07-09T03:00:00Z,30.1889,-90.1683,1.0,2.1,190.0,3.1,'11111222,11111222,11111222' 
LUMCON,ioos:station:LUMCON:103:1,2010-07-09T04:00:00Z,30.1889,-90.1683,1.0,1.0,150.0,2.6,'11111222,11111222,11111222' 
LUMCON,ioos:station:LUMCON:103:1,2010-07-09T05:00:00Z,30.1889,-90.1683,1.0,1.0,60.0,2.1,'11111222,11111222,11111222' 
LUMCON,ioos:station:LUMCON:103:1,2010-07-09T06:00:00Z,30.1889,-90.1683,1.0,1.5,60.0,2.6,'11111222,11111222,11111222' 
LUMCON,ioos:station:LUMCON:103:1,2010-07-09T07:00:00Z,30.1889,-90.1683,1.0,1.5,60.0,3.1,'11111222,11111222,11111222' 
LUMCON,ioos:station:LUMCON:103:1,2010-07-09T08:00:00Z,30.1889,-90.1683,1.0,2.1,50.0,3.6,'11111222,11111222,11111222' 
LUMCON,ioos:station:LUMCON:103:1,2010-07-09T09:00:00Z,30.1889,-90.1683,1.0,1.5,50.0,3.1,'11111222,11111222,11111222' 
LUMCON,ioos:station:LUMCON:103:1,2010-07-09T10:00:00Z,30.1889,-90.1683,1.0,1.0,160.0,2.6,'11111222,11111222,11111222' 
LUMCON,ioos:station:LUMCON:103:1,2010-07-09T11:00:00Z,30.1889,-90.1683,1.0,1.5,30.0,2.6,'11111222,11111222,11111222' 
LUMCON,ioos:station:LUMCON:103:1,2010-07-09T21:00:00Z,30.1889,-90.1683,1.0,2.6,220.0,4.6,'11111222,11111222,11111222' 
LUMCON,ioos:station:LUMCON:103:1,2010-07-09T22:00:00Z,30.1889,-90.1683,1.0,3.6,220.0,5.1,'11111222,11111222,11111222' 
LUMCON,ioos:station:LUMCON:103:1,2010-07-09T23:00:00Z,30.1889,-90.1683,1.0,3.6,220.0,4.6,'11111222,11111222,11111222' 
LUMCON,ioos:station:LUMCON:103:1,2010-07-10T00:00:00Z,30.1889,-90.1683,1.0,3.6,280.0,6.7,'11111222,11111222,11111222' 
LUMCON,ioos:station:LUMCON:103:1,2010-07-10T01:00:00Z,30.1889,-90.1683,1.0,3.6,260.0,7.7,'11111222,11111222,11111222' 
LUMCON,ioos:station:LUMCON:103:1,2010-07-10T02:00:00Z,30.1889,-90.1683,1.0,2.6,280.0,4.1,'11111222,11111222,11111222' 
LUMCON,ioos:station:LUMCON:103:1,2010-07-10T03:00:00Z,30.1889,-90.1683,1.0,2.6,270.0,4.1,'11111222,11111222,11111222' 
LUMCON,ioos:station:LUMCON:103:1,2010-07-10T04:00:00Z,30.1889,-90.1683,1.0,2.1,290.0,3.6,'11111222,11111222,11111222' 
LUMCON,ioos:station:LUMCON:103:1,2010-07-10T05:00:00Z,30.1889,-90.1683,1.0,2.6,270.0,4.1,'11111222,11111222,11111222' 
LUMCON,ioos:station:LUMCON:103:1,2010-07-10T06:00:00Z,30.1889,-90.1683,1.0,3.1,260.0,5.1,'11111222,11111222,11111222' 
LUMCON,ioos:station:LUMCON:103:1,2010-07-10T07:00:00Z,30.1889,-90.1683,1.0,2.6,260.0,5.7,'11111222,11111222,11111222' 
LUMCON,ioos:station:LUMCON:103:1,2010-07-10T08:00:00Z,30.1889,-90.1683,1.0,3.1,270.0,4.6,'11111222,11111222,11111222' 
LUMCON,ioos:station:LUMCON:103:1,2010-07-10T09:00:00Z,30.1889,-90.1683,1.0,2.6,260.0,4.6,'11111222,11111222,11111222' 
LUMCON,ioos:station:LUMCON:103:1,2010-07-10T10:00:00Z,30.1889,-90.1683,1.0,2.6,290.0,4.6,'11111222,11111222,11111222' 
LUMCON,ioos:station:LUMCON:103:1,2010-07-10T11:00:00Z,30.1889,-90.1683,1.0,2.6,280.0,4.6,'11111222,11111222,11111222' 
LUMCON,ioos:station:LUMCON:103:1,2010-07-10T12:00:00Z,30.1889,-90.1683,1.0,3.1,280.0,5.1,'11111222,11111222,11111222' 
LUMCON,ioos:station:LUMCON:103:1,2010-07-10T16:00:00Z,30.1889,-90.1683,1.0,6.2,130.0,8.2,'11111222,11111222,11111222' 
LUMCON,ioos:station:LUMCON:103:1,2010-07-10T19:00:00Z,30.1889,-90.1683,1.0,4.1,230.0,6.7,'11111222,11111222,11111222' 
LUMCON,ioos:station:LUMCON:103:1,2010-07-10T20:00:00Z,30.1889,-90.1683,1.0,4.6,220.0,6.2,'11111222,11111222,11111222' 
LUMCON,ioos:station:LUMCON:103:1,2010-07-10T21:00:00Z,30.1889,-90.1683,1.0,5.7,250.0,8.8,'11111222,11111222,11111222' 
LUMCON,ioos:station:LUMCON:103:1,2010-07-10T22:00:00Z,30.1889,-90.1683,1.0,3.6,290.0,6.2,'11111222,11111222,11111222' 
LUMCON,ioos:station:LUMCON:103:1,2010-07-10T23:00:00Z,30.1889,-90.1683,1.0,4.6,240.0,6.2,'11111222,11111222,11111222' 
LUMCON,ioos:station:LUMCON:103:1,2010-07-11T00:00:00Z,30.1889,-90.1683,1.0,4.1,260.0,6.2,'11111222,11111222,11111222' 
LUMCON,ioos:station:LUMCON:103:1,2010-07-11T01:00:00Z,30.1889,-90.1683,1.0,4.1,250.0,6.7,'11111222,11111222,11111222' 
LUMCON,ioos:station:LUMCON:103:1,2010-07-11T02:00:00Z,30.1889,-90.1683,1.0,4.1,280.0,6.2,'11111222,11111222,11111222' 
LUMCON,ioos:station:LUMCON:103:1,2010-07-11T03:00:00Z,30.1889,-90.1683,1.0,3.1,270.0,5.7,'11111222,11111222,11111222' 
LUMCON,ioos:station:LUMCON:103:1,2010-07-11T04:00:00Z,30.1889,-90.1683,1.0,3.1,270.0,5.1,'11111222,11111222,11111222' 
LUMCON,ioos:station:LUMCON:103:1,2010-07-11T05:00:00Z,30.1889,-90.1683,1.0,3.1,240.0,5.1,'11111222,11111222,11111222' 
LUMCON,ioos:station:LUMCON:103:1,2010-07-11T06:00:00Z,30.1889,-90.1683,1.0,4.1,230.0,6.7,'11111222,11111222,11111222' 
LUMCON,ioos:station:LUMCON:103:1,2010-07-11T07:00:00Z,30.1889,-90.1683,1.0,3.6,250.0,6.2,'11111222,11111222,11111222' 
LUMCON,ioos:station:LUMCON:103:1,2010-07-11T08:00:00Z,30.1889,-90.1683,1.0,3.6,270.0,6.2,'11111222,11111222,11111222' 
LUMCON,ioos:station:LUMCON:103:1,2010-07-11T09:00:00Z,30.1889,-90.1683,1.0,3.6,260.0,6.2,'11111222,11111222,11111222' 
LUMCON,ioos:station:LUMCON:103:1,2010-07-11T10:00:00Z,30.1889,-90.1683,1.0,3.1,260.0,6.7,'11111222,11111222,11111222' 
LUMCON,ioos:station:LUMCON:103:1,2010-07-11T11:00:00Z,30.1889,-90.1683,1.0,3.6,270.0,6.2,'11111222,11111222,11111222' 
LUMCON,ioos:station:LUMCON:103:1,2010-07-11T12:00:00Z,30.1889,-90.1683,1.0,3.6,250.0,6.2,'11111222,11111222,11111222' 
LUMCON,ioos:station:LUMCON:103:1,2010-07-11T13:00:00Z,30.1889,-90.1683,1.0,3.6,260.0,6.2,'11111222,11111222,11111222' 
LUMCON,ioos:station:LUMCON:103:1,2010-07-11T14:00:00Z,30.1889,-90.1683,1.0,4.1,270.0,6.2,'11111222,11111222,11111222' 
LUMCON,ioos:station:LUMCON:103:1,2010-07-11T15:00:00Z,30.1889,-90.1683,1.0,4.1,260.0,6.2,'11111222,11111222,11111222' 
LUMCON,ioos:station:LUMCON:103:1,2010-07-11T16:00:00Z,30.1889,-90.1683,1.0,4.1,270.0,5.7,'11111222,11111222,11111222' 
LUMCON,ioos:station:LUMCON:103:1,2010-07-11T18:00:00Z,30.1889,-90.1683,1.0,4.6,210.0,7.7,'11111222,11111222,11111222' 
LUMCON,ioos:station:LUMCON:103:1,2010-07-11T19:00:00Z,30.1889,-90.1683,1.0,5.7,220.0,8.2,'11111222,11111222,11111222' 
LUMCON,ioos:station:LUMCON:103:1,2010-07-11T20:00:00Z,30.1889,-90.1683,1.0,6.2,230.0,7.7,'11111222,11111222,11111222' 
LUMCON,ioos:station:LUMCON:103:1,2010-07-11T22:00:00Z,30.1889,-90.1683,1.0,5.7,230.0,8.8,'11111222,11111222,11111222' 
LUMCON,ioos:station:LUMCON:103:1,2010-07-11T23:00:00Z,30.1889,-90.1683,1.0,6.7,230.0,9.8,'11111222,11111222,11111222' 
LUMCON,ioos:station:LUMCON:103:1,2010-07-12T00:00:00Z,30.1889,-90.1683,1.0,6.2,240.0,8.2,'11111222,11111222,11111222' 
LUMCON,ioos:station:LUMCON:103:1,2010-07-12T01:00:00Z,30.1889,-90.1683,1.0,6.2,240.0,7.7,'11111222,11111222,11111222' 
LUMCON,ioos:station:LUMCON:103:1,2010-07-12T02:00:00Z,30.1889,-90.1683,1.0,5.1,250.0,8.2,'11111222,11111222,11111222' 
LUMCON,ioos:station:LUMCON:103:1,2010-07-12T03:00:00Z,30.1889,-90.1683,1.0,4.6,240.0,7.7,'11111222,11111222,11111222' 
LUMCON,ioos:station:LUMCON:103:1,2010-07-12T04:00:00Z,30.1889,-90.1683,1.0,5.1,250.0,7.7,'11111222,11111222,11111222' 
LUMCON,ioos:station:LUMCON:103:1,2010-07-12T05:00:00Z,30.1889,-90.1683,1.0,4.6,250.0,7.2,'11111222,11111222,11111222' 
LUMCON,ioos:station:LUMCON:103:1,2010-07-12T06:00:00Z,30.1889,-90.1683,1.0,4.1,260.0,7.2,'11111222,11111222,11111222' 
LUMCON,ioos:station:LUMCON:103:1,2010-07-12T07:00:00Z,30.1889,-90.1683,1.0,4.1,260.0,6.7,'11111222,11111222,11111222' 
LUMCON,ioos:station:LUMCON:103:1,2010-07-12T08:00:00Z,30.1889,-90.1683,1.0,3.6,260.0,6.7,'11111222,11111222,11111222' 
LUMCON,ioos:station:LUMCON:103:1,2010-07-12T09:00:00Z,30.1889,-90.1683,1.0,4.1,260.0,7.2,'11111222,11111222,11111222' 
LUMCON,ioos:station:LUMCON:103:1,2010-07-12T10:00:00Z,30.1889,-90.1683,1.0,4.6,250.0,8.2,'11111222,11111222,11111222' 
LUMCON,ioos:station:LUMCON:103:1,2010-07-12T11:00:00Z,30.1889,-90.1683,1.0,4.6,250.0,8.2,'11111222,11111222,11111222' 
LUMCON,ioos:station:LUMCON:103:1,2010-07-12T12:00:00Z,30.1889,-90.1683,1.0,3.6,250.0,6.7,'11111222,11111222,11111222' 
LUMCON,ioos:station:LUMCON:103:1,2010-07-12T23:00:00Z,30.1889,-90.1683,1.0,6.7,240.0,9.3,'11111222,11111222,11111222' 